DIAMANT DEB, 2685

Orbit data source: Space-Track

DIAMANT DEB, 2685 is space debris in LEO originally from a launch on Wed, 15 Feb 1967 UTC launched from the Hamma Guira Space Track Range (HGSTR). Debris objects in space refer to the collection of defunct objects orbiting the Earth. Examples of debris include non-operational satellites, rocket bodies, and fragments generated from explosions, collisions, or faulty payload assembly.

Loading next visibility...
Identifier
2685, 1967-014F
Orbit
LEO
Country
Flag of FRFR
Related business
Manufacturer
Unknown
Mission
Spacecraft
Bus & Motor
Unknown
Mass
Unknown
Launch date (UTC)
1967-02-15 (59 years ago)
Launch vehicle
Unknown
Launch site
Hamma Guira Space Track Range (HGSTR)
Object type
Payload
Rocket body
Debris
Shape & HBR
Unknown shape, 0.1 m
Radar Cross Section
Small (<0.1 m²)

Expand to show TLE details & history
Last TLE update: 20 hours ago

TLE from 20 hours ago
0 DIAMANT DEB
1 02685U 67014F   26140.62249532  .00003373  00000-0  57619-3 0  9992
2 02685  38.9320 253.1014 0342795 231.9360 125.0001 14.37487589963517
Epoch: 2026-05-20T14:56Z
TLE epoch observation values (Epoch: 2026-05-20T14:56:23.595Z)
Latitude
-0.00003°
Longitude
150.72365°
Altitude
912.086 km
Speed
7.322 km/s
True Right ascension
16h 52m 24s
True Declination
0° 00' 00"
Sunlit
Object was in full shadow at epoch
Visualization orbit readout
Latitude
Unknown
Longitude
Unknown
Altitude
Unknown
Speed
Unknown
Apparent Right ascension
Unknown
Apparent Declination
Unknown
Sunlit
N/A
Visualization observer readout
Local Sidereal Time
20:04:24
Azimuth
Unknown
Elevation
Unknown
Doppler factor
Unknown
Orbital elements
Apogee altitude
1,014.346 km
Perigee altitude
524.322 km
Semi-major axis
7,147.471 km
Eccentricity
0.03428
Inclination
38.932°
RAAN
253.1014°
Arg. of periapsis
231.936°
True anomaly
128.13902°
Mean anomaly
125.0001°
Eccentric anomaly
126.57735°
Mean motion
3.59182 °/min
Orbital period
100.23 mins
BSTAR
0.00057619
Loading maneuver chart data...
Computing Atmospheric mass density...
Loading historical data...
Loading historical data...
Loading historical data...
Loading historical data...
Loading historical data...
Loading historical data...
Loading historical data...

Documentation

Showing up to 5 results
|